Date String (YYYY-MM-DD hh:mm:ss) UTC,Instrument flags,Ambient pressure (hPa),Sample flow (lpm),Bypass flow (lpm),Sample temperature (°C),Ambient temperature (°C),ASC tube jacket temperature (°C),LED temperature (°C),Box temperature (°C),Sample RH (%),Span deviation,Mass concentration (μg/m³),Mass concentration (μg/m³),Mass concentration (μg/m³)
DateTimeUTC,F1_M11,P_M11,Q1_M11,Q2_M11,T1_M11,T2_M11,T3_M11,T4_M11,T5_M11,U1_M11,ZSPAN_M11,X2_M11,X0_M11,X1_M11
2023-02-22 16:00:00,,0809.4,4.99,0.00,22.8,22.6,00.0,31.5,24.6,05.8,0000.0,0002.87,0003.77,0002.54
2023-02-22 16:01:00,,0809.4,5.01,0.00,22.9,23.3,00.0,31.6,24.8,05.8,0000.0,0002.85,0003.61,0002.55
2023-02-22 16:02:00,,0809.5,4.96,0.00,22.9,22.9,00.0,31.6,24.7,05.7,0000.0,0002.85,0003.62,0002.55
2023-02-22 16:03:00,,0809.5,4.97,0.00,22.9,22.3,00.0,31.6,24.5,05.7,0000.0,0002.86,0003.71,0002.53
2023-02-22 16:04:00,,0809.4,5.00,0.00,22.8,21.8,00.0,31.6,24.4,05.7,0000.0,0002.85,0003.63,0002.53
2023-02-22 16:05:00,,0809.4,5.00,0.00,22.8,21.5,00.0,31.6,24.3,05.7,0000.0,0002.87,0003.62,0002.55
2023-02-22 16:06:00,,0809.4,5.00,0.00,22.7,21.4,00.0,31.6,24.2,05.7,0000.0,0002.91,0003.81,0002.57
2023-02-22 16:07:00,,0809.3,5.00,0.00,22.8,22.2,00.0,31.6,24.4,05.7,0000.0,0002.94,0003.92,0002.59
2023-02-22 16:08:00,,0809.4,4.99,0.00,22.9,23.1,00.0,31.6,24.7,05.7,0000.0,0003.02,0004.10,0002.63
2023-02-22 16:09:00,,0809.4,4.99,0.00,22.9,23.1,00.0,31.6,24.7,05.6,0000.0,0003.07,0004.19,0002.66
2023-02-22 16:10:00,,0809.4,5.01,0.00,22.9,22.5,00.0,31.6,24.6,05.6,0000.0,0003.10,0004.30,0002.66
2023-02-22 16:11:00,,0809.3,4.99,0.00,22.8,22.0,00.0,31.6,24.4,05.6,0000.0,0003.14,0004.48,0002.68
2023-02-22 16:12:00,,0809.2,5.00,0.00,22.8,21.5,00.0,31.6,24.2,05.6,0000.0,0003.16,0004.58,0002.72
2023-02-22 16:13:00,,0809.3,4.99,0.00,22.7,21.1,00.0,31.6,24.1,05.7,0000.0,0003.21,0004.73,0002.77
2023-02-22 16:14:00,,0809.3,5.01,0.00,22.7,21.7,00.0,31.5,24.3,05.7,0000.0,0003.25,0004.96,0002.82
2023-02-22 16:15:00,,0809.5,5.00,0.00,22.8,22.6,00.0,31.5,24.6,05.7,0000.0,0003.32,0005.28,0002.90
2023-02-22 16:16:00,,0809.5,5.01,0.00,22.9,23.4,00.0,31.5,24.8,05.7,0000.0,0003.37,0005.46,0002.96
2023-02-22 16:17:00,,0809.4,4.97,0.00,23.0,23.3,00.0,31.6,24.8,05.7,0000.0,0003.42,0005.52,0003.03
2023-02-22 16:18:00,,0809.4,4.98,0.00,23.0,22.7,00.0,31.6,24.7,05.7,0000.0,0003.48,0005.58,0003.10
2023-02-22 16:19:00,,0809.4,5.00,0.00,22.9,22.0,00.0,31.6,24.5,05.7,0000.0,0003.51,0005.60,0003.14
2023-02-22 16:20:00,,0809.5,5.00,0.00,22.8,21.4,00.0,31.6,24.3,05.7,0000.0,0003.52,0005.64,0003.15
2023-02-22 16:21:00,,0809.5,5.02,0.00,22.8,21.0,00.0,31.6,24.1,05.7,0000.0,0003.54,0005.68,0003.17
2023-02-22 16:22:00,,0809.5,5.01,0.00,22.7,21.0,00.0,31.6,24.1,05.7,0000.0,0003.55,0005.66,0003.18
2023-02-22 16:23:00,,0809.5,4.99,0.00,22.8,22.0,00.0,31.5,24.4,05.7,0000.0,0003.54,0005.71,0003.17
2023-02-22 16:24:00,,0809.5,5.02,0.00,22.9,23.0,00.0,31.6,24.7,05.7,0000.0,0003.50,0006.80,0003.16
2023-02-22 16:25:00,,0809.5,4.99,0.00,23.0,23.1,00.0,31.6,24.8,05.6,0000.0,0003.47,0006.57,0003.14
2023-02-22 16:26:00,,0809.5,5.02,0.00,22.9,22.4,00.0,31.6,24.6,05.6,0000.0,0003.43,0006.27,0003.12
2023-02-22 16:27:00,,0809.5,5.00,0.00,22.9,21.9,00.0,31.6,24.4,05.6,0000.0,0003.39,0006.11,0003.09
2023-02-22 16:28:00,,0809.4,4.99,0.00,22.8,21.4,00.0,31.6,24.3,05.6,0000.0,0003.36,0006.02,0003.06
2023-02-22 16:29:00,,0809.3,5.00,0.00,22.7,21.0,00.0,31.6,24.2,05.6,0000.0,0003.33,0006.09,0003.02
2023-02-22 16:30:00,,0809.3,5.01,0.00,22.7,21.0,00.0,31.6,24.2,05.7,0000.0,0003.29,0006.05,0002.98
2023-02-22 16:31:00,,0809.3,4.96,0.00,22.7,21.8,00.0,31.5,24.4,05.7,0000.0,0003.29,0006.06,0002.97
2023-02-22 16:32:00,,0809.3,4.97,0.00,22.9,23.1,00.0,31.5,24.7,05.7,0000.0,0003.31,0006.23,0002.96
2023-02-22 16:33:00,,0809.3,5.01,0.00,23.0,23.1,00.0,31.6,24.7,05.6,0000.0,0003.31,0006.35,0002.95
2023-02-22 16:34:00,,0809.4,4.98,0.00,22.9,22.4,00.0,31.6,24.5,05.6,0000.0,0003.34,0006.52,0002.94
2023-02-22 16:35:00,,0809.4,5.00,0.00,22.9,21.8,00.0,31.6,24.4,05.6,0000.0,0003.35,0006.54,0002.94
2023-02-22 16:36:00,,0809.4,5.00,0.00,22.8,21.3,00.0,31.6,24.2,05.6,0000.0,0003.38,0005.94,0002.96
2023-02-22 16:37:00,,0809.4,5.01,0.00,22.7,20.9,00.0,31.6,24.1,05.5,0000.0,0003.38,0005.66,0002.97
2023-02-22 16:38:00,,0809.4,5.02,0.00,22.7,21.5,00.0,31.5,24.3,05.5,0000.0,0003.38,0006.01,0002.96
2023-02-22 16:39:00,,0809.4,5.00,0.00,22.8,22.6,00.0,31.5,24.6,05.5,0000.0,0003.44,0006.28,0002.97
2023-02-22 16:40:00,,0809.4,5.01,0.00,22.9,23.4,00.0,31.6,24.8,05.4,0000.0,0003.43,0006.25,0002.96
2023-02-22 16:41:00,,0809.4,5.01,0.00,23.0,23.4,00.0,31.6,24.8,05.4,0000.0,0003.42,0006.11,0002.94
2023-02-22 16:42:00,,0809.4,4.98,0.00,23.0,22.7,00.0,31.6,24.7,05.4,0000.0,0003.42,0006.07,0002.94
2023-02-22 16:43:00,,0809.4,5.01,0.00,22.9,22.0,00.0,31.6,24.4,05.4,0000.0,0003.40,0006.01,0002.93
2023-02-22 16:44:00,,0809.5,4.99,0.00,22.8,21.5,00.0,31.6,24.3,05.4,0000.0,0003.38,0006.15,0002.91
2023-02-22 16:45:00,,0809.6,5.00,0.00,22.8,21.1,00.0,31.6,24.2,05.5,0000.0,0003.35,0006.41,0002.90
2023-02-22 16:46:00,,0809.5,4.99,0.00,22.7,20.8,00.0,31.6,24.0,05.5,0000.0,0003.32,0006.30,0002.88
2023-02-22 16:47:00,,0809.3,5.00,0.00,22.7,21.5,00.0,31.5,24.2,05.5,0000.0,0003.30,0006.21,0002.87
2023-02-22 16:48:00,,0809.3,4.99,0.00,22.8,22.5,00.0,31.5,24.5,05.5,0000.0,0003.31,0006.34,0002.86
2023-02-22 16:49:00,,0809.4,5.02,0.00,22.9,23.2,00.0,31.5,24.7,05.4,0000.0,0003.32,0005.91,0002.87
2023-02-22 16:50:00,,0809.4,5.00,0.00,22.9,22.7,00.0,31.6,24.7,05.5,0000.0,0003.31,0005.83,0002.87
2023-02-22 16:51:00,,0809.4,5.02,0.00,22.9,22.2,00.0,31.6,24.5,05.5,0000.0,0003.29,0005.74,0002.87
2023-02-22 16:52:00,,0809.3,5.00,0.00,22.8,21.7,00.0,31.6,24.3,05.5,0000.0,0003.27,0005.67,0002.86
2023-02-22 16:53:00,,0809.2,5.01,0.00,22.8,21.3,00.0,31.6,24.2,05.5,0000.0,0003.25,0005.57,0002.85
2023-02-22 16:54:00,,0809.3,5.00,0.00,22.7,21.0,00.0,31.6,24.1,05.5,0000.0,0003.25,0005.49,0002.86
2023-02-22 16:55:00,,0809.3,5.00,0.00,22.6,21.0,00.0,31.5,24.1,05.4,0000.0,0003.25,0005.52,0002.86
2023-02-22 16:56:00,,0809.1,4.99,0.00,22.7,22.0,00.0,31.5,24.4,05.4,0000.0,0003.23,0004.94,0002.84
2023-02-22 16:57:00,,0809.0,4.99,0.00,22.8,23.1,00.0,31.5,24.7,05.5,0000.0,0003.22,0004.90,0002.85
2023-02-22 16:58:00,,0809.0,5.02,0.00,22.9,23.2,00.0,31.5,24.7,05.5,0000.0,0003.24,0004.98,0002.85
2023-02-22 16:59:00,,0809.2,4.98,0.00,22.9,22.6,00.0,31.6,24.6,05.5,0000.0,0003.26,0004.73,0002.87
